User: anonymous   Login
Location: Unspecified
(0.0000°N, 0.0000°E)
Time: 19:28:21
(UTC+00:00)
Language:

GALILEO 7 (263) - Orbit

View from above orbital plane
View from above orbital plane
View from above satellite
View from above satellite

Ground track
Ground track

The orbit data is extracted from the following two-line orbital elements,

1 40544U 15017A   17293.52283442 -.00000044  00000-0  00000+0 0  9991
2 40544  55.7140  68.4785 0002984 207.4022 152.5553  1.70475514 15959
Epoch (UTC): 20 October 2017 12:32:52
Eccentricity: 0.0002984
inclination: 55.7140°
perigee height: 23213 km
apogee height: 23230 km
right ascension of ascending node: 68.4785°
argument of perigee: 207.4022°
revolutions per day: 1.70475514
mean anomaly at epoch: 152.5553°
orbit number at epoch: 1595

The dashed part of the orbit path shows where the satellite is in the earth's shadow,  

DLR